sat.trackr.live / text

‹ back to catalog

UNKNOWN

NORAD 87884

UNKNOWN UNKNOWN UNKNOWN

§ Identity

Operator
Country
Launch date
Launch site
Launch vehicle
Mass (kg)
RCS (m²)

External: N2YO · Heavens-Above

§ Orbital elements

Epoch: 2026-05-23T12:54:18.880128Z

Period
102.41 min
Inclination
98.7383°
Eccentricity
0.0153142
Mean motion
14.06094766 rev/d
Perigee alt
761.7 km
Apogee alt
983.8 km
Semi-major
7,250.9 km
B*
3.6137e-5
RAAN
246.7228°
Arg perigee
333.3650°
Mean anomaly
25.9710°
Rev number
64,110

§ Raw data

UNKNOWN1 87884U          26143.53771852  .00000023  00000+0  36137-4 0  99972 87884  98.7383 246.7228 0153142 333.3650  25.9710 14.06094766641104

JSON: /api/v1/satellites/87884 · /tle

For live sub-satellite position, see the globe view (requires WebGL).

§ Visibility from observer

Set your observer location to see the next 7 days of passes ≥ 10°. The values pass through the URL so the page stays shareable.

No JS? Fill the form by hand. The geolocation button needs JavaScript.